ZHUHAI-1 02

Last updated on Thu Jun 22 2017 00:17:34 GMT+0000 (Coordinated Universal Time)

1 42761U 17034D 17172.56518519 -.00000220 00000-0 00000-0 0 9998 2 42761 43.0192 262.4461 0008365 7.7766 184.0333 15.08968647 951

Satellite not in orbit

ZHUHAI-1 02